sat.trackr.live / text

‹ back to catalog

STARLINK-30817

NORAD 58238 · 2023-171J

PAYLOAD ACTIVE UNKNOWN

§ Identity

Operator
Country
US
Launch date
2023-11-08
Launch site
AFETR
Launch vehicle
Mass (kg)
RCS (m²)

Purposes: comms

External: N2YO · Heavens-Above · Gunter

§ Orbital elements

Epoch: 2026-05-25T04:54:22.313952Z

Period
94.27 min
Inclination
43.0010°
Eccentricity
0.0001367
Mean motion
15.27568922 rev/d
Perigee alt
482.1 km
Apogee alt
484.0 km
Semi-major
6,861.2 km
B*
1.2642e-5
RAAN
213.3561°
Arg perigee
274.9225°
Mean anomaly
85.1470°
Rev number
14,143

§ Raw data

STARLINK-308171 58238U 23171J   26145.20442493  .00000086  00000+0  12642-4 0  99982 58238  43.0010 213.3561 0001367 274.9225  85.1470 15.27568922141430

JSON: /api/v1/satellites/58238 · /tle

For live sub-satellite position, see the globe view (requires WebGL).

§ Visibility from observer

Set your observer location to see the next 7 days of passes ≥ 10°. The values pass through the URL so the page stays shareable.

No JS? Fill the form by hand. The geolocation button needs JavaScript.